Location: Muenchen
(48.1800°N, 11.5800°E)
Time: 19:20:05
(UTC+02:00)

ISS - All Passes

Search period start: 03 July 2015 00:00
Search period end: 13 July 2015 00:00
Orbit: 398 x 403 km, 51.6° (Epoch: 03 July)

Date Brightness Start Highest point End Pass type
(mag) Time Alt. Az. Time Alt. Az. Time Alt. Az.
03 Jul - 10:07:58 10° SW 10:11:08 51° SSE 10:14:18 10° ENE daylight
03 Jul - 11:44:23 10° W 11:47:34 50° N 11:50:45 10° ENE daylight
03 Jul - 13:21:08 10° WNW 13:24:18 48° N 13:27:28 10° E daylight
03 Jul - 14:57:34 10° WNW 15:00:47 59° SSW 15:03:59 10° SE daylight
03 Jul - 16:35:35 10° WSW 16:36:40 11° SW 16:37:38 10° SSW daylight
04 Jul - 09:14:51 10° SSW 09:17:45 30° SE 09:20:40 10° E daylight
04 Jul - 10:50:46 10° W 10:54:00 65° NNW 10:57:14 10° ENE daylight
04 Jul - 12:27:34 10° WNW 12:30:42 43° N 12:33:49 10° ENE daylight
04 Jul - 14:04:03 10° WNW 14:07:19 88° NE 14:10:33 10° ESE daylight
04 Jul - 15:40:58 10° W 15:43:23 19° SW 15:45:45 10° S daylight
05 Jul - 08:22:05 10° S 08:24:24 18° SE 08:26:46 10° E daylight
05 Jul - 09:57:13 10° WSW 10:00:27 89° S 10:03:44 10° ENE daylight
05 Jul - 11:33:56 10° WNW 11:37:04 43° N 11:40:12 10° ENE daylight
05 Jul - 13:10:32 10° WNW 13:13:46 63° NNE 13:16:59 10° E daylight
05 Jul - 14:47:06 10° W 14:50:02 32° SW 14:52:58 10° SSE daylight
06 Jul - 07:30:22 10° SSE 07:31:07 11° SE 07:31:58 10° ESE daylight
06 Jul - 09:03:47 10° SW 09:06:58 57° SSE 09:10:11 10° ENE daylight
06 Jul - 10:40:16 10° W 10:43:26 48° N 10:46:37 10° ENE daylight
06 Jul - 12:16:59 10° WNW 12:20:11 49° N 12:23:21 10° E daylight
06 Jul - 13:53:26 10° WNW 13:56:37 53° SSW 13:59:47 10° SE daylight
07 Jul - 08:10:33 10° SSW 08:13:32 34° SE 08:16:32 10° E daylight
07 Jul - 09:46:36 10° W 09:49:50 61° NNW 09:53:03 10° ENE daylight
07 Jul - 11:23:23 10° WNW 11:26:32 43° N 11:29:40 10° ENE daylight
07 Jul - 12:59:51 10° WNW 13:03:07 85° SSW 13:06:22 10° ESE daylight
07 Jul - 14:36:54 10° W 14:39:09 17° SW 14:41:20 10° S daylight
08 Jul - 07:17:40 10° S 07:20:08 21° SE 07:22:40 10° E daylight
08 Jul - 08:53:00 10° WSW 08:56:15 84° NNW 08:59:31 10° ENE daylight
08 Jul - 10:29:44 10° WNW 10:32:52 43° N 10:36:00 10° ENE daylight
08 Jul - 12:06:18 10° WNW 12:09:33 67° NNE 12:12:47 10° ESE daylight
08 Jul - 13:42:55 10° W 13:45:47 28° SW 13:48:37 10° SSE daylight
09 Jul - 06:25:29 10° SSE 06:26:48 12° SE 06:28:12 10° ESE daylight
09 Jul - 07:59:29 10° SW 08:02:42 63° SSE 08:05:56 10° ENE daylight
09 Jul - 09:36:02 10° W 09:39:12 47° N 09:42:22 10° ENE daylight
09 Jul - 11:12:44 10° WNW 11:15:55 51° NNE 11:19:07 10° E daylight
09 Jul - 12:49:11 10° WNW 12:52:21 48° SSW 12:55:28 10° SE daylight
10 Jul - 07:06:10 10° SW 07:09:12 38° SSE 07:12:16 10° ENE daylight
10 Jul - 08:42:20 10° W 08:45:33 57° NNW 08:48:46 10° ENE daylight
10 Jul - 10:19:06 10° WNW 10:22:15 44° N 10:25:23 10° E daylight
10 Jul - 11:55:33 10° WNW 11:58:49 78° SSW 12:02:03 10° ESE daylight
10 Jul - 13:32:46 10° W 13:34:48 15° SW 13:36:46 10° S daylight
11 Jul - 06:13:09 10° SSW 06:15:46 23° SE 06:18:26 10° E daylight
11 Jul - 07:48:39 10° WSW 07:51:54 78° NNW 07:55:11 10° ENE daylight
11 Jul - 09:25:25 10° WNW 09:28:33 43° N 09:31:41 10° ENE daylight
11 Jul - 11:01:58 10° WNW 11:05:13 72° NNE 11:08:28 10° ESE daylight
11 Jul - 12:38:38 10° W 12:41:24 26° SW 12:44:09 10° SSE daylight
12 Jul - 05:20:42 10° SSE 05:22:22 14° SE 05:24:08 10° ESE daylight
12 Jul - 06:55:05 10° WSW 06:58:19 70° SSE 07:01:34 10° ENE daylight
12 Jul - 08:31:41 10° W 08:34:50 45° N 08:38:00 10° ENE daylight
12 Jul - 10:08:21 10° WNW 10:11:34 54° NNE 10:14:46 10° E daylight
12 Jul - 11:44:49 10° WNW 11:47:56 43° SSW 11:51:01 10° SE daylight
